Pope Field Airport, NC

8:24 PM EDT on April 24, 2017 (GMT -0400)
Pope Field Airport

Weather History for KPOB - April, 2014

Change the Weather History Date:

Wednesday, April 30, 2014

  Actual Average Record
Temperature  
Mean Temperature 74 °F -  
Max Temperature 78 °F 77 °F 91 °F (1981)
Min Temperature 69 °F 52 °F 39 °F (1982)
Cooling Degree Days 8    
Growing Degree Days 24 (Base 50)    
Moisture  
Dew Point 70 °F    
Average Humidity 90    
Maximum Humidity 100    
Minimum Humidity 74    
Precipitation  
Precipitation 1.22 in - - ()
Sea Level Pressure  
Sea Level Pressure 29.98 in    
Wind  
Wind Speed 9 mph (SSW)    
Max Wind Speed 20 mph    
Max Gust Speed 30 mph    
Visibility 9 miles    
Events Rain , Thunderstorm    
Averages and records for this station are not official NWS values.
T = Trace of Precipitation, MM = Missing Value Source: NWS Daily Summary

Daily Weather History Graph

Daily Weather History Graph

Search for Another Location

Airport or City:

Trip Planner

Search our weather history database for the weather conditions in past years. The results will help you decide how hot, cold, wet, or windy it might be!

Date:

Astronomy

Apr. 30, 2014 Rise Set
Actual Time 6:26 AM EDT 8:01 PM EDT
Civil Twilight 5:58 AM EDT 8:28 PM EDT
Nautical Twilight 5:26 AM EDT 9:00 PM EDT
Astronomical Twilight 4:52 AM EDT 9:35 PM EDT
Moon 7:26 AM EDT (4/30) 9:36 PM EDT (4/30)
Length of Visible Light 14h 29m
Length of Day
13h 35m
New Moon, 2% of the Moon is Illuminated
Apr 30
New Moon
May 6
First Quarter
May 14
Full
May 21
Last Quarter
May 28
New

Hourly Weather History & Observations

Time (EDT) Temp. Dew Point Humidity Pressure Visibility Wind Dir Wind Speed Gust Speed Precip Events Conditions
12:38 AM 73.4 °F 71.6 °F 94% 30.02 in 10.0 mi South 6.9 mph - N/A   Mostly Cloudy
12:53 AM 73.4 °F 71.6 °F 94% 30.02 in 10.0 mi South 6.9 mph - N/A   Mostly Cloudy
12:58 AM 72.9 °F 71.1 °F 94% 30.03 in 10.0 mi SSW 5.8 mph - -   Mostly Cloudy
1:55 AM 73.4 °F 71.6 °F 94% 30.00 in 10.0 mi South 5.8 mph - N/A Rain Light Rain
1:58 AM 73.4 °F 71.6 °F 94% 30.01 in 9.0 mi Variable 5.8 mph - 0.00 in Rain Light Rain
2:03 AM 73.4 °F 71.6 °F 94% 30.00 in 8.0 mi South 4.6 mph - N/A Rain Light Rain
2:04 AM 73.4 °F 71.6 °F 94% 30.00 in 8.0 mi South 4.6 mph - N/A Rain Light Rain
2:09 AM 73.4 °F 71.6 °F 94% 30.00 in 9.0 mi Variable 5.8 mph - N/A Rain Light Rain
2:13 AM 73.4 °F 71.6 °F 94% 30.01 in 10.0 mi South 4.6 mph - N/A   Mostly Cloudy
2:58 AM 72.5 °F 71.1 °F 95% 30.01 in 10.0 mi South 5.8 mph - 0.00 in   Mostly Cloudy
3:03 AM 73.4 °F 71.6 °F 94% 30.00 in 10.0 mi South 4.6 mph - N/A   Mostly Cloudy
3:08 AM 73.4 °F 71.6 °F 94% 30.00 in 10.0 mi South 5.8 mph - N/A   Mostly Cloudy
3:18 AM 73.4 °F 71.6 °F 94% 30.00 in 10.0 mi South 5.8 mph - N/A   Mostly Cloudy
3:23 AM 73.4 °F 71.6 °F 94% 30.00 in 10.0 mi Variable 4.6 mph - N/A   Mostly Cloudy
3:33 AM 73.4 °F 71.6 °F 94% 29.99 in 10.0 mi South 5.8 mph - N/A   Scattered Clouds
3:34 AM 71.6 °F 71.6 °F 100% 29.99 in 10.0 mi South 8.1 mph - N/A   Scattered Clouds
3:58 AM 72.5 °F 70.9 °F 95% 30.00 in 10.0 mi South 6.9 mph - N/A   Mostly Cloudy
4:12 AM 71.6 °F 71.6 °F 100% 29.99 in 10.0 mi South 8.1 mph - N/A   Mostly Cloudy
4:32 AM 71.6 °F 69.8 °F 94% 29.99 in 10.0 mi South 8.1 mph - N/A   Mostly Cloudy
4:42 AM 71.6 °F 69.8 °F 94% 29.99 in 10.0 mi SSW 6.9 mph - N/A   Mostly Cloudy
4:47 AM 71.6 °F 69.8 °F 94% 29.99 in 10.0 mi South 6.9 mph - N/A   Mostly Cloudy
4:52 AM 71.6 °F 69.8 °F 94% 29.99 in 10.0 mi South 8.1 mph - N/A   Mostly Cloudy
4:58 AM 72.3 °F 70.5 °F 94% 30.00 in 10.0 mi South 8.1 mph - N/A   Mostly Cloudy
5:58 AM 72.9 °F 70.7 °F 93% 30.00 in 10.0 mi South 6.9 mph - N/A   Overcast
6:58 AM 73.0 °F 70.5 °F 92% 30.00 in 10.0 mi South 8.1 mph - N/A   Overcast
7:58 AM 73.6 °F 70.7 °F 91% 30.01 in 10.0 mi South 11.5 mph 17.3 mph N/A   Mostly Cloudy
8:58 AM 74.3 °F 70.9 °F 89% 30.01 in 10.0 mi SSW 8.1 mph 17.3 mph N/A   Overcast
9:28 AM 75.2 °F 71.6 °F 89% 30.00 in 10.0 mi SSW 9.2 mph - N/A   Overcast
9:58 AM 75.2 °F 70.9 °F 86% 30.00 in 10.0 mi South 12.7 mph 19.6 mph N/A   Mostly Cloudy
10:08 AM 75.2 °F 71.6 °F 89% 30.00 in 10.0 mi South 8.1 mph 17.3 mph N/A   Scattered Clouds
11:31 AM 77.0 °F 69.8 °F 78% 29.98 in 10.0 mi SSW 12.7 mph 18.4 mph N/A   Mostly Cloudy
11:54 AM 78.8 °F 69.8 °F 74% 29.97 in 10.0 mi SSW 10.4 mph 19.6 mph N/A Thunderstorm Light Drizzle
11:55 AM 73.4 °F 69.8 °F 88% 29.98 in 3.0 mi South 10.4 mph 24.2 mph N/A Rain , Thunderstorm Rain
11:58 AM 78.1 °F 70.7 °F 78% 29.98 in 10.0 mi SSW 11.5 mph 19.6 mph 0.00 in Rain , Thunderstorm Light Rain
11:59 AM 77.0 °F 71.6 °F 83% 29.97 in 9.0 mi SSW 10.4 mph 19.6 mph N/A Rain , Thunderstorm Light Thunderstorms and Rain
12:14 PM 77.0 °F 71.6 °F 83% 29.97 in 2.5 mi SW 9.2 mph 19.6 mph N/A Rain , Thunderstorm Heavy Thunderstorms and Rain
12:19 PM 75.2 °F 71.6 °F 89% 29.97 in 1.8 mi SSW 8.1 mph 19.6 mph N/A Rain , Thunderstorm Heavy Thunderstorms and Rain
12:24 PM 75.2 °F 71.6 °F 89% 29.97 in 3.0 mi South 12.7 mph 17.3 mph N/A Rain , Thunderstorm Light Thunderstorms and Rain
12:34 PM 75.2 °F 71.6 °F 89% 29.97 in 10.0 mi SSW 10.4 mph 19.6 mph N/A Rain , Thunderstorm Light Thunderstorms and Rain
12:55 PM 73.4 °F 69.8 °F 88% 29.98 in 3.0 mi South 10.4 mph 24.2 mph N/A Rain , Thunderstorm Rain
12:59 PM 71.6 °F 69.8 °F 94% 29.98 in 2.5 mi South 9.2 mph 24.2 mph N/A Rain , Thunderstorm Heavy Thunderstorms and Rain
1:06 PM 73.4 °F 69.8 °F 88% 29.97 in 6.0 mi South 16.1 mph 21.9 mph N/A Rain , Thunderstorm Light Thunderstorms and Rain
1:07 PM 73.4 °F 69.8 °F 88% 29.97 in 10.0 mi South 16.1 mph 21.9 mph N/A Thunderstorm Thunderstorm
1:17 PM 73.4 °F 68.0 °F 83% 29.99 in 10.0 mi SSW 15.0 mph 23.0 mph N/A Rain , Thunderstorm Light Thunderstorms and Rain
1:27 PM 71.6 °F 68.0 °F 88% 30.00 in 2.0 mi SSW 16.1 mph 28.8 mph N/A Rain , Thunderstorm Heavy Thunderstorms and Rain
1:32 PM 69.8 °F 68.0 °F 94% 29.99 in 1.5 mi SSW 15.0 mph 28.8 mph N/A Rain , Thunderstorm Heavy Thunderstorms and Rain
1:37 PM 69.8 °F 68.0 °F 94% 29.98 in 3.0 mi SW 17.3 mph 24.2 mph N/A Rain , Thunderstorm Light Thunderstorms and Rain
1:47 PM 69.8 °F 68.0 °F 94% 29.97 in 10.0 mi SSW 12.7 mph 25.3 mph N/A Rain , Thunderstorm Light Thunderstorms and Rain
1:51 PM 69.8 °F 68.0 °F 94% 29.97 in 10.0 mi South 9.2 mph 19.6 mph N/A Rain , Thunderstorm Light Rain
1:56 PM 69.8 °F 68.0 °F 94% 29.97 in 10.0 mi SSW 12.7 mph 18.4 mph N/A Rain Light Rain
1:58 PM 70.3 °F 68.0 °F 92% 29.98 in 10.0 mi SSW 12.7 mph 18.4 mph N/A Rain Light Rain
1:59 PM 69.8 °F 68.0 °F 94% 29.97 in 10.0 mi South 12.7 mph 19.6 mph N/A   Scattered Clouds
2:09 PM 69.8 °F 68.0 °F 94% 29.97 in 10.0 mi SSW 16.1 mph 23.0 mph N/A   Partly Cloudy
2:27 PM 69.8 °F 66.2 °F 88% 29.95 in 10.0 mi South 16.1 mph 26.5 mph N/A   Light Drizzle
2:52 PM 69.8 °F 66.2 °F 88% 29.93 in 10.0 mi South 16.1 mph 24.2 mph N/A   Clear
2:58 PM 70.2 °F 66.7 °F 89% 29.94 in 10.0 mi South 17.3 mph 29.9 mph 0.00 in   Partly Cloudy
3:05 PM 69.8 °F 66.2 °F 88% 29.91 in 10.0 mi South 19.6 mph 27.6 mph N/A   Light Drizzle
3:25 PM 71.6 °F 66.2 °F 83% 29.90 in 10.0 mi South 13.8 mph 25.3 mph N/A   Scattered Clouds
3:58 PM 72.3 °F 66.6 °F 82% 29.91 in 10.0 mi South 13.8 mph 17.3 mph 0.00 in   Scattered Clouds
4:58 PM 72.7 °F 67.3 °F 83% 29.91 in 10.0 mi SSW 12.7 mph 20.7 mph N/A   Scattered Clouds
5:58 PM 73.9 °F 67.6 °F 81% 29.92 in 10.0 mi SW 13.8 mph 23.0 mph N/A   Scattered Clouds
6:03 PM 75.2 °F 68.0 °F 78% 29.92 in 10.0 mi SSW 11.5 mph - N/A   Scattered Clouds
6:08 PM 75.2 °F 68.0 °F 78% 29.92 in 10.0 mi SSW 13.8 mph 19.6 mph N/A   Mostly Cloudy
6:38 PM 75.2 °F 68.0 °F 78% 29.92 in 10.0 mi SSW 12.7 mph 20.7 mph N/A   Scattered Clouds
6:58 PM 74.3 °F 67.8 °F 80% 29.93 in 10.0 mi South 10.4 mph - N/A   Clear
7:58 PM 72.9 °F 67.6 °F 84% 29.94 in 10.0 mi SSW 8.1 mph - N/A   Clear
8:58 PM 72.5 °F 67.5 °F 84% 29.95 in 10.0 mi SSW 8.1 mph - N/A   Clear
9:58 PM 71.8 °F 68.7 °F 90% 29.97 in 10.0 mi SSW 8.1 mph - N/A   Scattered Clouds
10:58 PM 71.6 °F 69.3 °F 92% 29.95 in 10.0 mi SSW 6.9 mph - N/A   Clear
11:58 PM 71.1 °F 68.0 °F 90% 29.94 in 10.0 mi SW 11.5 mph - N/A   Clear